Regional Weather Roundup
Issued by NWS

Home | Current Version | Previous Version | Text Only | Print | Product List | Glossary Off
Versions: 1 2 3 4 5 6 7 8 9 10 11 12 13 14 15 16 17 18 19 20 21 22 23 24 25 26 27 28 29 30 31 32 33 34 35 36 37 38 39 40 41 42 43 44 45 46 47 48 49 50

000
ASUS43 KOAX 271502
RWRNE

WEATHER ROUNDUP FOR NEBRASKA
NATIONAL WEATHER SERVICE OMAHA NE
1000 AM CDT MON MAR 27 2017

NOTES: SATELLITE DATA IS BEING USED TO AUGMENT CLOUD COVER ABOVE
       12000 FEET.
       "FAIR" INDICATES FEW OR NO CLOUDS BELOW 12,000 FEET WITH NO
       SIGNIFICANT WEATHER AND/OR OBSTRUCTIONS TO VISIBILITY.

  * THESE STATIONS DO NOT REPORT WEATHER SUCH AS RAIN...SNOW OR FOG.

NEZ001>004-019>022-054>056-271600-
NEBRASKA PANHANDLE

CITY           SKY/WX    TMP DP  RH WIND       PRES   REMARKS
SCOTTSBLUFF    SUNNY     39  34  82 SE6       29.92R WCI  35
ALLIANCE       SUNNY     39  38  96 S6        29.90S WCI  35
CHADRON        PTSUNNY   36  34  92 NE5       29.88F WCI  32
KIMBALL        SUNNY     42  39  91 W9        29.94S
SIDNEY         SUNNY     43  39  86 SW7       29.94R
$$

NEZ057>060-069>072-079>082-271600-
SOUTHWEST NEBRASKA

CITY           SKY/WX    TMP DP  RH WIND       PRES   REMARKS
NORTH PLATTE   FOG       39  37  92 CALM      29.96R VSB<1/4
IMPERIAL       SUNNY     42  37  82 NW5       29.95R
LEXINGTON      FOG       42  41  95 CALM      29.98R VSB 1/4
MCCOOK         SUNNY     41  38  89 S5        29.96S
OGALLALA       SUNNY     41  37  86 CALM      29.94F
$$

NEZ005>010-023>029-035>040-094-271600-
NORTH CENTRAL NEBRASKA

CITY           SKY/WX    TMP DP  RH WIND       PRES   REMARKS
VALENTINE      PTSUNNY   40  38  93 S8        29.95R WCI  34
AINSWORTH      CLOUDY    42  42 100 CALM      29.95S FOG
BROKEN BOW     CLOUDY    43  32  65 E3        29.96R
O`NEILL        CLOUDY    43  38  80 CALM      29.98R
ORD            CLOUDY    44  39  82 W5        29.96S
THEDFORD       FOG       40  40  99 CALM      29.96S VSB 1/4
$$

NEZ041-046>049-061>064-073>077-083>087-271600-
SOUTH CENTRAL NEBRASKA

CITY           SKY/WX    TMP DP  RH WIND       PRES   REMARKS
GRAND ISLAND   CLOUDY    44  42  93 N5        29.98R
AURORA         CLOUDY    43  43  99 N5        29.98R
HASTINGS       CLOUDY    44  42  93 E10       29.98S
HEBRON         CLOUDY    44  43  96 N6        29.98S FOG
HOLDREGE       FOG       41  41  98 NE3       29.98R VSB 1/4
KEARNEY *      CLOUDY    45  37  76 CALM      29.98R
YORK           PTSUNNY   43  43 100 E6        29.98S FOG
$$

NEZ011>018-030>034-042>045-271600-
NORTHEAST NEBRASKA

CITY           SKY/WX    TMP DP  RH WIND       PRES   REMARKS
NORFOLK        CLOUDY    46  36  68 N3        29.97R
ALBION         CLOUDY    46  40  81 CALM      29.97S
BLAIR          CLOUDY    45  41  85 N7        29.97R
FREMONT        CLOUDY    45  42  89 N5        29.99S
TEKAMAH        CLOUDY    46  40  79 N7        29.98R
WAYNE          CLOUDY    45  42  89 CALM      29.97S
$$

NEZ050>053-065>068-078-088>093-271600-
SOUTHEAST NEBRASKA

CITY           SKY/WX    TMP DP  RH WIND       PRES   REMARKS
LINCOLN        CLOUDY    46  41  82 N9        30.00R
OMAHA EPPLEY   CLOUDY    46  39  76 N7        29.98R
BEATRICE       CLOUDY    45  44  96 N9        29.98R FOG
FALLS CITY     CLOUDY    47  43  86 N9        29.95R
NEBRASKA CITY  CLOUDY    45  43  93 N10       29.96R
PLATTSMOUTH    CLOUDY    45  38  77 N7        29.97R
$$

NEZ044-045-051>053-067-271600-
OMAHA AREA

CITY           SKY/WX    TMP DP  RH WIND       PRES   REMARKS
OMAHA EPPLEY   CLOUDY    46  39  76 N7        29.98R
BLAIR          CLOUDY    45  41  85 N7        29.97R
FREMONT        CLOUDY    45  42  89 N5        29.99S
MILLARD        CLOUDY    47  43  85 N3        29.98S
OFFUTT AFB     CLOUDY    46  40  78 N7        29.97S
PLATTSMOUTH    CLOUDY    45  38  77 N7        29.97R
WAHOO          CLOUDY    45  42  89 N3        29.98R
$$




USA.gov is the U.S. government's official web portal to all federal, state and local government web resources and services.